Tracking 28125 objects as of 2-Oct-2023
HD Live streaming from Space Station
objects crossing your sky now

STARLINK-6058

Track STARLINK-6058 now!
10-day predictions
STARLINK-6058 is classified as:


NORAD ID: 56797
Int'l Code: 2023-078AG
Perigee: 523.4 km
Apogee: 528.0 km
Inclination: 70.0 °
Period: 95.0 minutes
Semi major axis: 6896 km
RCS: Unknown
Launch date: May 31, 2023
Source: United States (US)
Launch site: AIR FORCE WESTERN TEST RANGE (AFWTR)
Your satellite tracking list
Your tracking list is empty




NASA's NSSDC Master Catalog

Two Line Element Set (TLE):
1 56797U 23078AG  23275.58334491 -.01108558  00000-0 -62653-1 0  9993
2 56797  70.0011  66.5066 0003382 273.1037  65.1300 15.15796282 19756
Source of the keplerian elements: AFSPC